FENGYUN 1C DEB, 29805

Orbit data source: Space-Track

FENGYUN 1C DEB, 29805 is space debris in SSO originally from a launch on Mon, 10 May 1999 UTC launched from the Taiyaun Space Center, China (TSC). Fengyun 1C debris stems from the Chinese weather satellite Fengyun-1C, which was intentionally destroyed by a Chinese anti-satellite missile in 2007. This event dramatically increased the amount of space debris, with thousands of trackable fragments posing hazards to satellites and human spaceflight. The Fengyun 1C debris cloud has become a focal point in discussions about space sustainability and the need for international regulations to prevent the creation of new debris.

Loading next visibility...
Identifier
29805, 1999-025CX
Orbit
SSO
Country
Flag of CNCN / PRC
Related business
Manufacturer
Unknown
Mission
Spacecraft
Bus & Motor
Unknown
Mass
Unknown
Launch date (UTC)
1999-05-10 (27 years ago)
Launch vehicle
Unknown
Launch site
Taiyaun Space Center, China (TSC)
Object type
Payload
Rocket body
Debris
Shape & HBR
Unknown shape, 0.1 m
Radar Cross Section
Medium (>0.1 m² and <1 m²)

Expand to show TLE details & history
Last TLE update: 9 hours ago

TLE from 9 hours ago
0 FENGYUN 1C DEB
1 29805U 99025CX  26151.08829201  .00000142  00000-0  17692-3 0  9999
2 29805  99.4266 204.9717 0189081 148.7381 212.5175 13.72713564970267
Epoch: 2026-05-31T02:07Z
TLE epoch observation values (Epoch: 2026-05-31T02:07:08.429Z)
Latitude
-0.00005°
Longitude
-75.4084°
Altitude
1,110.913 km
Speed
7.238 km/s
True Right ascension
13h 39m 53s
True Declination
0° 00' 00"
Sunlit
Object was in full shadow at epoch
Visualization orbit readout
Latitude
Unknown
Longitude
Unknown
Altitude
Unknown
Speed
Unknown
Apparent Right ascension
Unknown
Apparent Declination
Unknown
Sunlit
N/A
Visualization observer readout
Local Sidereal Time
20:32:59
Azimuth
Unknown
Elevation
Unknown
Doppler factor
Unknown
Orbital elements
Apogee altitude
1,126.363 km
Perigee altitude
847.838 km
Semi-major axis
7,365.238 km
Eccentricity
0.01891
Inclination
99.4266°
RAAN
204.9717°
Arg. of periapsis
148.7381°
True anomaly
211.37562°
Mean anomaly
212.5175°
Eccentric anomaly
211.9443°
Mean motion
3.43371 °/min
Orbital period
104.84 mins
BSTAR
0.00017692
Loading maneuver chart data...
Computing Atmospheric mass density...
Loading historical data...
Loading historical data...
Loading historical data...
Loading historical data...
Loading historical data...
Loading historical data...
Loading historical data...

Documentation

Showing up to 5 results
|